• In Hungary
  • List of Countries
  • For 7 days
  • Water Temperature
  • Satellite Maps
  • Weather Map
  • News
  • Weather Widgets
  • user-avatar
    Login

    Hourly Weather Myczkowce

    Today, 24 May, Thursday

    Time Temperature Precipitation Wind Pressure Humidity
    00:00 +15°C° 0 mm 2 mps 732 mmHg 95%
    01:00 +14°C° 0 mm 1 mps 732 mmHg 95%
    02:00 +14°C° 0.1 mm 1 mps 732 mmHg 95%
    03:00 +14°C° 0.1 mm 2 mps 732 mmHg 96%
    04:00 +13°C° 0.1 mm 2 mps 732 mmHg 96%
    05:00 +15°C° 0 mm 2 mps 732 mmHg 94%
    06:00 +16°C° 0 mm 2 mps 732 mmHg 91%
    07:00 +17°C° 0 mm 2 mps 733 mmHg 89%
    08:00 +18°C° 0 mm 3 mps 733 mmHg 84%
    09:00 +19°C° 0 mm 3 mps 733 mmHg 80%
    10:00 +20°C° 0 mm 3 mps 733 mmHg 75%
    11:00 +21°C° 0.3 mm 4 mps 733 mmHg 72%
    12:00 +22°C° 0.3 mm 4 mps 732 mmHg 70%
    13:00 +22°C° 0.3 mm 4 mps 732 mmHg 68%
    14:00 +22°C° 0.2 mm 4 mps 732 mmHg 68%
    15:00 +22°C° 0.2 mm 4 mps 732 mmHg 68%
    16:00 +22°C° 0.2 mm 4 mps 732 mmHg 69%
    17:00 +20°C° 0.1 mm 4 mps 731 mmHg 74%
    18:00 +19°C° 0.1 mm 3 mps 731 mmHg 79%
    19:00 +17°C° 0.1 mm 3 mps 731 mmHg 85%
    20:00 +16°C° 0 mm 2 mps 731 mmHg 87%
    21:00 +15°C° 0 mm 2 mps 731 mmHg 89%
    22:00 +14°C° 0 mm 2 mps 731 mmHg 91%
    23:00 +14°C° 0 mm 2 mps 731 mmHg 92%

    Tomorrow, 25 May, Friday

    Time Temperature Precipitation Wind Pressure Humidity
    00:00 +13°C° 0 mm 2 mps 731 mmHg 93%
    01:00 +13°C° 0 mm 1 mps 731 mmHg 94%
    02:00 +12°C° 0 mm 1 mps 731 mmHg 94%
    03:00 +12°C° 0 mm 1 mps 731 mmHg 95%
    04:00 +12°C° 0 mm 1 mps 731 mmHg 95%
    05:00 +14°C° 0 mm 1 mps 731 mmHg 90%
    06:00 +15°C° 0 mm 2 mps 731 mmHg 85%
    07:00 +17°C° 0 mm 2 mps 731 mmHg 80%
    08:00 +18°C° 0.2 mm 2 mps 731 mmHg 76%
    09:00 +20°C° 0.2 mm 3 mps 731 mmHg 72%
    10:00 +21°C° 0.2 mm 3 mps 731 mmHg 68%
    11:00 +22°C° 0.5 mm 3 mps 731 mmHg 70%
    12:00 +22°C° 0.5 mm 3 mps 731 mmHg 71%
    13:00 +23°C° 0.5 mm 2 mps 731 mmHg 73%
    14:00 +23°C° 0.5 mm 2 mps 731 mmHg 74%
    15:00 +23°C° 0.5 mm 2 mps 731 mmHg 75%
    16:00 +23°C° 0.5 mm 2 mps 731 mmHg 76%
    17:00 +21°C° 0.1 mm 2 mps 732 mmHg 81%
    18:00 +19°C° 0.1 mm 2 mps 732 mmHg 86%
    19:00 +19°C° 0.1 mm 1 mps 732 mmHg 92%
    20:00 +18°C° 0.2 mm 1 mps 732 mmHg 93%
    21:00 +18°C° 0.2 mm 1 mps 732 mmHg 94%
    22:00 +16°C° 0.2 mm 1 mps 733 mmHg 95%
    23:00 +16°C° 0 mm 1 mps 733 mmHg 95%

    Day after tomorrow, 26 May, Saturday

    Time Temperature Precipitation Wind Pressure Humidity
    00:00 +15°C° 0 mm 1 mps 733 mmHg 95%
    01:00 +15°C° 0 mm 1 mps 733 mmHg 95%
    02:00 +15°C° 0 mm 1 mps 733 mmHg 95%
    03:00 +15°C° 0 mm 1 mps 733 mmHg 94%
    04:00 +14°C° 0 mm 1 mps 733 mmHg 94%
    05:00 +16°C° 0 mm 1 mps 733 mmHg 90%
    06:00 +19°C° 0 mm 1 mps 734 mmHg 85%
    07:00 +21°C° 0 mm 1 mps 734 mmHg 81%
    08:00 +23°C° 0.1 mm 1 mps 734 mmHg 75%
    09:00 +24°C° 0.1 mm 2 mps 734 mmHg 70%
    10:00 +26°C° 0.1 mm 2 mps 734 mmHg 64%
    11:00 +26°C° 0.4 mm 2 mps 734 mmHg 63%
    12:00 +26°C° 0.4 mm 3 mps 734 mmHg 63%
    13:00 +26°C° 0.4 mm 3 mps 734 mmHg 62%
    14:00 +26°C° 0.2 mm 3 mps 734 mmHg 65%
    15:00 +26°C° 0.2 mm 3 mps 733 mmHg 67%
    16:00 +25°C° 0.2 mm 3 mps 733 mmHg 70%
    17:00 +24°C° 0.3 mm 3 mps 733 mmHg 75%
    18:00 +21°C° 0.3 mm 2 mps 733 mmHg 81%
    19:00 +20°C° 0.3 mm 2 mps 733 mmHg 86%
    20:00 +19°C° 0 mm 2 mps 733 mmHg 88%
    21:00 +18°C° 0 mm 2 mps 733 mmHg 90%
    22:00 +17°C° 0 mm 2 mps 733 mmHg 92%
    23:00 +16°C° 0 mm 2 mps 733 mmHg 93%

    27 May, Sunday

    Time Temperature Precipitation Wind Pressure Humidity
    00:00 +16°C° 0 mm 1 mps 733 mmHg 94%
    01:00 +15°C° 0 mm 1 mps 733 mmHg 94%
    02:00 +15°C° 0.1 mm 1 mps 733 mmHg 95%
    03:00 +15°C° 0.1 mm 1 mps 733 mmHg 95%
    04:00 +15°C° 0.1 mm 1 mps 733 mmHg 95%
    05:00 +16°C° 0 mm 1 mps 733 mmHg 91%
    06:00 +19°C° 0 mm 1 mps 733 mmHg 86%
    07:00 +21°C° 0 mm 1 mps 733 mmHg 82%
    08:00 +22°C° 0.1 mm 1 mps 733 mmHg 76%
    09:00 +24°C° 0.1 mm 1 mps 733 mmHg 71%
    10:00 +26°C° 0.1 mm 1 mps 733 mmHg 65%
    11:00 +26°C° 0.4 mm 1 mps 733 mmHg 66%
    12:00 +26°C° 0.4 mm 1 mps 733 mmHg 67%
    13:00 +26°C° 0.4 mm 2 mps 733 mmHg 68%
    14:00 +26°C° 0.7 mm 2 mps 733 mmHg 70%
    15:00 +25°C° 0.7 mm 2 mps 733 mmHg 72%
    16:00 +25°C° 0.7 mm 2 mps 733 mmHg 75%
    17:00 +23°C° 0.2 mm 2 mps 733 mmHg 80%
    18:00 +21°C° 0.2 mm 2 mps 733 mmHg 85%
    19:00 +21°C° 0.2 mm 1 mps 733 mmHg 90%
    20:00 +20°C° 0 mm 1 mps 733 mmHg 92%
    21:00 +19°C° 0 mm 1 mps 733 mmHg 93%
    22:00 +18°C° 0 mm 1 mps 733 mmHg 94%
    23:00 +18°C° 0 mm 1 mps 733 mmHg 94%

    28 May, Monday

    Time Temperature Precipitation Wind Pressure Humidity
    00:00 +16°C° 0 mm 1 mps 733 mmHg 95%
    01:00 +16°C° 0 mm 1 mps 733 mmHg 95%
    02:00 +16°C° 0 mm 1 mps 733 mmHg 95%
    03:00 +15°C° 0 mm 1 mps 733 mmHg 95%
    04:00 +15°C° 0 mm 1 mps 733 mmHg 95%
    05:00 +17°C° 0 mm 2 mps 734 mmHg 91%
    06:00 +18°C° 0 mm 2 mps 734 mmHg 87%
    07:00 +20°C° 0 mm 2 mps 734 mmHg 82%
    08:00 +21°C° 0.1 mm 3 mps 734 mmHg 76%
    09:00 +24°C° 0.1 mm 3 mps 735 mmHg 69%
    10:00 +26°C° 0.1 mm 4 mps 735 mmHg 62%
    11:00 +26°C° 0.1 mm 4 mps 735 mmHg 61%
    12:00 +26°C° 0.1 mm 4 mps 734 mmHg 59%
    13:00 +27°C° 0.1 mm 4 mps 734 mmHg 58%
    14:00 +26°C° 0.1 mm 4 mps 734 mmHg 60%
    15:00 +26°C° 0.1 mm 4 mps 734 mmHg 63%
    16:00 +25°C° 0.1 mm 4 mps 734 mmHg 65%
    17:00 +23°C° 0 mm 4 mps 734 mmHg 71%
    18:00 +21°C° 0 mm 4 mps 734 mmHg 77%
    19:00 +20°C° 0 mm 3 mps 734 mmHg 83%
    20:00 +19°C° 0 mm 3 mps 734 mmHg 86%
    21:00 +17°C° 0 mm 3 mps 734 mmHg 90%
    22:00 +16°C° 0 mm 2 mps 735 mmHg 93%
    23:00 +16°C° 0 mm 2 mps 735 mmHg 93%

    29 May, Tuesday

    Time Temperature Precipitation Wind Pressure Humidity
    00:00 +16°C° 0 mm 2 mps 735 mmHg 93%
    01:00 +15°C° 0 mm 2 mps 735 mmHg 93%
    02:00 +15°C° 0 mm 2 mps 735 mmHg 93%
    03:00 +15°C° 0 mm 2 mps 735 mmHg 93%
    04:00 +15°C° 0 mm 2 mps 735 mmHg 93%
    05:00 +17°C° 0 mm 2 mps 735 mmHg 86%
    06:00 +19°C° 0 mm 2 mps 735 mmHg 80%
    07:00 +21°C° 0 mm 2 mps 735 mmHg 73%
    08:00 +22°C° 0 mm 3 mps 735 mmHg 68%
    09:00 +24°C° 0 mm 3 mps 735 mmHg 64%
    10:00 +25°C° 0 mm 3 mps 735 mmHg 59%
    11:00 +26°C° 0 mm 4 mps 735 mmHg 58%
    12:00 +26°C° 0 mm 4 mps 735 mmHg 57%
    13:00 +26°C° 0 mm 4 mps 735 mmHg 56%
    14:00 +26°C° 0.1 mm 4 mps 735 mmHg 59%
    15:00 +25°C° 0.1 mm 4 mps 734 mmHg 61%
    16:00 +25°C° 0.1 mm 4 mps 734 mmHg 63%
    17:00 +22°C° 0.1 mm 3 mps 734 mmHg 70%
    18:00 +21°C° 0.1 mm 3 mps 734 mmHg 76%
    19:00 +19°C° 0.1 mm 2 mps 734 mmHg 83%
    20:00 +18°C° 0 mm 2 mps 734 mmHg 85%
    21:00 +17°C° 0 mm 2 mps 734 mmHg 88%
    22:00 +16°C° 0 mm 2 mps 734 mmHg 91%
    23:00 +16°C° 0 mm 2 mps 734 mmHg 91%
    Show more